Погода в Чутово

Украина / Полтавская область     49°43′17″N   35°10′14″E
темп.,
°C
ветер,
м/с
пор.,
м/с
влажн.,
%
обл.,
%
осадки,
мм/ч
давл.,
гПа
погр.,
м
4 августа, ср
ср400:00+20с3453100 0.0 101590
03:00+18с225924 0.0 101614
06:00+18с346182 0.0 101774
09:00+22ссз225288 0.0 1017422
12:00+27з343416 0.0 10172517
15:00+28сз442762 0.0 10162768
18:00+27сз33285 0.0 10172426
21:00+21св34381 0.0 101750
5 августа, чт
чт500:00+18в454285 0.0 101867
03:00+18вюв364530 0.0 101881
06:00+17юв375090 0.0 1017122
09:00+24ююв574046 0.0 1017550
12:00+28ю5630100 0.0 10162395
15:00+30ю5526100 0.0 10142768
18:00+28ю473195 0.0 1013236
21:00+23ююв484240 0.0 1013116
6 августа, пт
пт600:00+21юв49485 0.0 1012128
03:00+20юв4953100 0.0 1012137
06:00+19юв4852100 0.0 1011145
09:00+27юв573547 0.0 1009443
12:00+33ююв572536 0.0 10081894
15:00+35ю782650 0.0 10062794
18:00+34ю6729100 0.0 10062714
21:00+27юв4543100 0.0 100666
7 августа, сб
сб700:00+23вюв336093 0.6 100637
03:00+19юв31182100 2.3 1007237
06:00+22вюв101973100 2.3 1005447
09:00+23вюв61365100 2.4 1006495
12:00+25юв61054100 0.9 1007691
15:00+30в3742100 2.6 10061500
18:00+30вюв464597 0.3 1005567
21:00+20ю71587100 3.4 1007403
8 августа, вс
вс800:00+19всв3592100 1.0 100986
03:00+19ссз1183100 1.0 100911
06:00+19ссз3486100 0.0 100975
09:00+23сз3370100 0.0 1010411
12:00+27зсз445375 0.0 10101219
15:00+27зсз655723 0.1 10111253
18:00+26сз575783 0.0 10131215
21:00+21сз377243 0.0 1015122